Vertical_Velocity
-1 -0 1 1 -0 1 4 1 5 3 3 1 3 1 9 1 1 -0 -2 -3 -0 -1
8 9 8 5 9 4 2 0 -8 0 5 3 4 2 -1 5 4 0 3 5 -2 -3
4 -2 -0 2 2 -0 2 2 1 1 -1 -5 46 3 46 1 0 -1 1 -0 1 1
-2 0 -2 -2 0 0 -1 -2 -3 -2 -3 1 -2 -3 -4 -2 -4 -2 2 1 2 4
1 -0 1 3 1 1 -0 -1 -1 -2 -6 -5 -5 -2 -4 -2 2 5 -1 -0 -1 -3
-1 -0 -1 0 1 -1 2 4 2 1 3 1 0 3 0 -2 -4 -3 -3 0 1 3
2 4 2 0 0 0 -0 0 4 3 3 1 -1 -0 -0 -1 -0 -1 -0 1 1 1
5 6 1 1 1 1 1 -1 2 1 3 2 1 0 2 2 3 5 3 8 9 12
-3 0 -0 2 1 -3 -2 1 5 0 4 12 11 8 8 8 10 28 11 4 6 2
1 2 -3 1 0 3 2 7 6 11 14 6 8 10 9 8 3 1 0 -3 -3 -5
3 2 -0 -0 4 0 -2 4 11 1 1 -2 -2 -3 -2 -3 -5 -3 -1 2 2 1
-1 -1 0 0 -1 -0 0 0 -2 0 2 2 1 2 2 2 2 3 3 2 4 3
2 2 2 1 1 2 3 3 3 3 3 3 1 1 1 2 1 1 -2 -3 -4 -4
2 3 1 0 0 0 -1 1 0 1 1 2 1 2 3 4 -1 -1 -3 -2 -3 -3
Height
5604 5610 5616 5621 5625 5632 5642 5652 5661 5669 5674 5682 5688 5692 5697 5699 5699 5702 5711 5713 5716 5716
5596 5600 5606 5611 5616 5621 5629 5638 5646 5655 5663 5670 5674 5679 5682 5687 5689 5692 5695 5700 5702 5702
5586 5589 5595 5601 5606 5611 5617 5625 5634 5645 5649 5661 5655 5667 5667 5673 5678 5681 5683 5684 5686 5688
5579 5583 5589 5594 5599 5603 5608 5615 5623 5630 5637 5644 5650 5655 5659 5663 5664 5667 5668 5670 5671 5674
5578 5581 5585 5589 5593 5596 5600 5606 5613 5620 5626 5633 5638 5642 5646 5649 5652 5654 5656 5658 5660 5662
5582 5582 5583 5585 5588 5590 5594 5600 5605 5609 5615 5622 5627 5631 5634 5637 5641 5644 5645 5647 5649 5650
5585 5585 5585 5585 5587 5589 5592 5597 5601 5607 5612 5615 5619 5621 5624 5626 5629 5632 5634 5636 5637 5639
5590 5589 5588 5587 5587 5590 5592 5594 5598 5601 5604 5607 5610 5613 5615 5618 5621 5623 5624 5624 5625 5626
5591 5591 5590 5590 5590 5591 5592 5594 5596 5599 5600 5601 5604 5606 5608 5608 5611 5614 5612 5611 5611 5611
5591 5590 5589 5589 5589 5590 5590 5592 5593 5594 5595 5597 5598 5599 5599 5600 5602 5604 5604 5604 5604 5604
5592 5590 5588 5588 5588 5587 5587 5587 5587 5587 5589 5590 5591 5592 5593 5594 5596 5596 5596 5595 5594 5593
5589 5588 5587 5586 5586 5585 5585 5585 5586 5586 5586 5586 5586 5586 5586 5586 5585 5585 5584 5583 5582 5580
5585 5584 5583 5583 5582 5581 5581 5581 5580 5580 5579 5579 5578 5577 5576 5575 5574 5571 5570 5568 5566 5564
5580 5578 5577 5576 5575 5574 5573 5572 5572 5570 5569 5568 5567 5566 5565 5563 5561 5560 5556 5553 5550 5545